Weather History for KGRF - September, 2013

Change the Weather History Date:

Sunday, September 22, 2013

  Actual Average Record
Temperature  
Mean Temperature 58 °F -  
Max Temperature 62 °F 69 °F 84 °F (1999)
Min Temperature 53 °F 45 °F 35 °F (2005)
Degree Days  
Heating Degree Days 8    
Growing Degree Days 8 (Base 50)    
Moisture  
Dew Point 53 °F    
Average Humidity 90    
Maximum Humidity 100    
Minimum Humidity 67    
Precipitation  
Precipitation 0.79 in - - ()
Sea Level Pressure  
Sea Level Pressure 29.68 in    
Wind  
Wind Speed 10 mph (SSE)    
Max Wind Speed 26 mph    
Max Gust Speed 36 mph    
Visibility 9 miles    
Events Rain , Thunderstorm    
Averages and records for this station are not official NWS values.
T = Trace of Precipitation, MM = Missing Value Source: NWS Daily Summary

Daily Weather History Graph

Daily Weather History Graph

Search for Another Location

Airport or City:

Trip Planner

Search our weather history database for the weather conditions in past years. The results will help you decide how hot, cold, wet, or windy it might be!

Date:

Astronomy

Sep. 22, 2013 Rise Set
Actual Time 6:57 AM PDT 7:07 PM PDT
Civil Twilight 6:27 AM PDT 7:37 PM PDT
Nautical Twilight 5:51 AM PDT 8:13 PM PDT
Astronomical Twilight 5:14 AM PDT 8:50 PM PDT
Moon 8:44 PM PDT (9/22) 10:39 AM PDT (9/22)
Length of Visible Light 13h 10m
Length of Day
12h 09m
Waning Gibbous, 88% of the Moon is Illuminated
Sep 22
Waning Gibbous
Sep 26
Last Quarter
Oct 4
New
Oct 11
First Quarter
Oct 18
Full

Hourly Weather History & Observations

Time (PDT) Temp. Dew Point Humidity Pressure Visibility Wind Dir Wind Speed Gust Speed Precip Events Conditions
12:58 AM 58.3 °F 52.9 °F 82% 29.73 in 10.0 mi SSE 9.2 mph - N/A   Overcast
1:58 AM 57.6 °F 52.3 °F 83% 29.73 in 10.0 mi South 8.1 mph - N/A   Overcast
2:58 AM 56.7 °F 52.9 °F 87% 29.73 in 10.0 mi SSE 8.1 mph - N/A   Overcast
3:17 AM 57.2 °F 53.6 °F 88% 29.71 in 10.0 mi SSE 9.2 mph - N/A   Drizzle
3:58 AM 56.5 °F 53.2 °F 89% 29.72 in 10.0 mi South 9.2 mph - 0.00 in Rain Light Rain
4:08 AM 57.2 °F 53.6 °F 88% 29.71 in 10.0 mi SSE 9.2 mph - N/A   Light Drizzle
4:24 AM 57.2 °F 53.6 °F 88% 29.71 in 10.0 mi South 6.9 mph - N/A   Light Drizzle
4:29 AM 57.2 °F 53.6 °F 88% 29.71 in 9.0 mi South 9.2 mph - N/A Rain Heavy Rain
4:34 AM 55.4 °F 53.6 °F 94% 29.71 in 9.0 mi South 8.1 mph - N/A Rain Heavy Rain
4:39 AM 55.4 °F 53.6 °F 94% 29.71 in 10.0 mi SSE 10.4 mph - N/A Rain Light Rain
4:49 AM 55.4 °F 53.6 °F 94% 29.70 in 10.0 mi SSE 10.4 mph - N/A   Light Drizzle
4:58 AM 55.4 °F 53.8 °F 94% 29.71 in 10.0 mi SSE 10.4 mph - 0.01 in   Light Drizzle
5:02 AM 55.4 °F 53.6 °F 94% 29.70 in 10.0 mi SSE 10.4 mph - N/A   Overcast
5:07 AM 55.4 °F 53.6 °F 94% 29.70 in 10.0 mi SSE 10.4 mph - N/A   Light Drizzle
5:16 AM 55.4 °F 53.6 °F 94% 29.70 in 10.0 mi SSE 9.2 mph - N/A   Mostly Cloudy
5:34 AM 55.4 °F 53.6 °F 94% 29.70 in 10.0 mi South 6.9 mph - N/A   Light Drizzle
5:53 AM 55.4 °F 53.6 °F 94% 29.70 in 10.0 mi SSE 6.9 mph - N/A   Partly Cloudy
5:58 AM 55.0 °F 53.2 °F 94% 29.71 in 10.0 mi SSE 5.8 mph - 0.00 in   Partly Cloudy
6:27 AM 55.4 °F 51.8 °F 88% 29.70 in 10.0 mi SSE 8.1 mph - N/A Rain Light Rain
6:58 AM 55.0 °F 52.3 °F 91% 29.71 in 10.0 mi South 5.8 mph - 0.00 in   Light Drizzle
7:58 AM 54.9 °F 52.3 °F 91% 29.70 in 10.0 mi SSE 6.9 mph - 0.04 in Rain Heavy Rain
8:12 AM 55.4 °F 51.8 °F 88% 29.69 in 10.0 mi SSE 8.1 mph - N/A   Mostly Cloudy
8:15 AM 55.4 °F 51.8 °F 88% 29.69 in 10.0 mi SSE 9.2 mph - N/A   Light Drizzle
8:34 AM 55.4 °F 53.6 °F 94% 29.67 in 10.0 mi SE 6.9 mph - N/A   Mostly Cloudy
8:38 AM 55.4 °F 53.6 °F 94% 29.67 in 10.0 mi SE 6.9 mph - N/A   Light Drizzle
8:48 AM 55.4 °F 53.6 °F 94% 29.67 in 10.0 mi SE 8.1 mph - N/A   Overcast
8:58 AM 55.2 °F 53.1 °F 92% 29.67 in 10.0 mi SE 9.2 mph - 0.00 in   Overcast
9:58 AM 57.0 °F 50.5 °F 79% 29.64 in 10.0 mi SSE 13.8 mph - 0.01 in   Overcast
10:58 AM 59.4 °F 48.6 °F 67% 29.61 in 10.0 mi SSE 23.0 mph 35.7 mph N/A   Overcast
11:14 AM 59.0 °F 48.2 °F 67% 29.59 in 10.0 mi SSE 26.5 mph 35.7 mph N/A Rain Light Rain
11:38 AM 57.2 °F 51.8 °F 82% 29.58 in 10.0 mi SE 15.0 mph 25.3 mph N/A   Overcast
11:58 AM 58.6 °F 50.5 °F 74% 29.58 in 10.0 mi SSE 17.3 mph 25.3 mph 0.01 in   Mostly Cloudy
12:28 PM 59.0 °F 50.0 °F 72% 29.59 in 10.0 mi SSE 17.3 mph 25.3 mph N/A Rain Light Rain
12:31 PM 59.0 °F 50.0 °F 72% 29.59 in 10.0 mi SSE 17.3 mph 25.3 mph N/A Rain Light Rain
12:39 PM 57.2 °F 50.0 °F 77% 29.58 in 8.0 mi SSE 17.3 mph 25.3 mph N/A   Overcast
12:40 PM 57.2 °F 50.0 °F 77% 29.58 in 8.0 mi SSE 16.1 mph 25.3 mph N/A Rain Light Rain
12:58 PM 56.1 °F 51.6 °F 85% 29.60 in 10.0 mi SSE 17.3 mph - 0.08 in Rain Rain
1:58 PM 55.6 °F 54.1 °F 95% 29.62 in 6.0 mi SSE 9.2 mph - 0.19 in Rain Rain
2:24 PM 55.4 °F 55.4 °F 100% 29.62 in 6.0 mi South 11.5 mph - N/A Rain Light Rain
2:45 PM 57.2 °F 55.4 °F 94% 29.61 in 10.0 mi SSE 16.1 mph 20.7 mph N/A   Overcast
2:58 PM 56.8 °F 54.9 °F 93% 29.62 in 10.0 mi SSE 13.8 mph - 0.06 in   Mostly Cloudy
3:58 PM 59.9 °F 55.2 °F 84% 29.63 in 10.0 mi SSE 15.0 mph - N/A   Mostly Cloudy
4:58 PM 62.4 °F 54.0 °F 74% 29.65 in 10.0 mi SSE 10.4 mph - N/A   Partly Cloudy
5:19 PM 60.8 °F 53.6 °F 77% 29.65 in 10.0 mi South 10.4 mph - N/A Rain Light Rain
5:21 PM 59.0 °F 53.6 °F 82% 29.65 in 7.0 mi South 11.5 mph - N/A Rain Light Rain
5:36 PM 57.2 °F 53.6 °F 88% 29.68 in 4.0 mi SSW 11.5 mph - N/A Rain Rain
5:41 PM 57.2 °F 55.4 °F 94% 29.68 in 1.2 mi SW 10.4 mph - N/A Rain Heavy Rain
5:46 PM 57.2 °F 55.4 °F 94% 29.68 in 0.8 mi SSW 9.2 mph - N/A Rain Heavy Rain
5:51 PM 57.2 °F 55.4 °F 94% 29.67 in 0.8 mi Variable 6.9 mph - N/A Rain Heavy Rain
5:56 PM 57.2 °F 55.4 °F 94% 29.67 in 2.0 mi SE 11.5 mph - N/A Rain Light Rain
5:58 PM 56.5 °F 54.7 °F 94% 29.68 in 2.5 mi SE 12.7 mph - 0.38 in Rain Light Rain
6:03 PM 57.2 °F 53.6 °F 88% 29.67 in 8.0 mi SE 10.4 mph - N/A Rain Light Rain
6:05 PM 57.2 °F 53.6 °F 88% 29.67 in 10.0 mi SE 8.1 mph - N/A Rain , Thunderstorm Light Thunderstorms and Rain
6:08 PM 57.2 °F 53.6 °F 88% 29.67 in 10.0 mi SE 6.9 mph - N/A Thunderstorm Thunderstorm
6:14 PM 57.2 °F 53.6 °F 88% 29.67 in 10.0 mi SSE 9.2 mph - N/A Rain , Thunderstorm Light Thunderstorms and Rain
6:28 PM 57.2 °F 53.6 °F 88% 29.67 in 10.0 mi South 10.4 mph - N/A Rain Rain
6:35 PM 55.4 °F 53.6 °F 94% 29.68 in 10.0 mi South 8.1 mph - N/A   Mostly Cloudy
6:58 PM 55.2 °F 52.9 °F 92% 29.69 in 10.0 mi South 6.9 mph - 0.00 in   Mostly Cloudy
7:00 PM 55.4 °F 53.6 °F 94% 29.68 in 10.0 mi South 5.8 mph - N/A   Light Drizzle
7:05 PM 55.4 °F 53.6 °F 94% 29.69 in 10.0 mi SSE 8.1 mph - N/A   Light Drizzle
7:09 PM 55.4 °F 53.6 °F 94% 29.69 in 10.0 mi SSE 13.8 mph 17.3 mph N/A   Mostly Cloudy
7:19 PM 55.4 °F 53.6 °F 94% 29.69 in 10.0 mi SSE 10.4 mph - N/A   Drizzle
7:29 PM 55.4 °F 53.6 °F 94% 29.69 in 10.0 mi SSE 9.2 mph - N/A   Mostly Cloudy
7:49 PM 53.6 °F 53.6 °F 100% 29.70 in 10.0 mi SSE 9.2 mph - N/A Rain Light Rain
7:58 PM 54.1 °F 52.7 °F 95% 29.71 in 10.0 mi SSE 9.2 mph - 0.00 in   Light Drizzle
7:59 PM 53.6 °F 51.8 °F 94% 29.70 in 10.0 mi SSE 8.1 mph - N/A   Scattered Clouds
8:29 PM 53.6 °F 51.8 °F 94% 29.71 in 10.0 mi SSE 8.1 mph - N/A Rain Light Rain
8:37 PM 53.6 °F 53.6 °F 100% 29.71 in 10.0 mi SSE 10.4 mph - N/A   Scattered Clouds
8:45 PM 53.6 °F 53.6 °F 100% 29.72 in 10.0 mi SSE 8.1 mph - N/A   Light Drizzle
8:55 PM 53.6 °F 53.6 °F 100% 29.72 in 10.0 mi South 8.1 mph - N/A   Mostly Cloudy
8:58 PM 54.3 °F 53.6 °F 97% 29.73 in 10.0 mi South 8.1 mph - 0.01 in   Mostly Cloudy
9:08 PM 55.4 °F 53.6 °F 94% 29.73 in 10.0 mi South 10.4 mph - N/A   Light Drizzle
9:16 PM 55.4 °F 53.6 °F 94% 29.73 in 10.0 mi SSE 11.5 mph - N/A   Mostly Cloudy
9:57 PM 55.4 °F 53.6 °F 94% 29.74 in 10.0 mi South 8.1 mph - N/A   Light Drizzle
9:58 PM 55.9 °F 53.4 °F 91% 29.75 in 10.0 mi South 9.2 mph - 0.00 in   Light Drizzle
10:44 PM 55.4 °F 53.6 °F 94% 29.76 in 10.0 mi South 8.1 mph - N/A   Overcast
10:58 PM 55.2 °F 53.2 °F 93% 29.77 in 10.0 mi SSE 10.4 mph - 0.00 in   Mostly Cloudy
11:33 PM 55.4 °F 51.8 °F 88% 29.76 in 10.0 mi SSE 9.2 mph - N/A Rain Light Rain
11:49 PM 53.6 °F 51.8 °F 94% 29.77 in 10.0 mi SSE 8.1 mph - N/A   Scattered Clouds
11:58 PM 54.5 °F 52.3 °F 92% 29.79 in 10.0 mi SSE 8.1 mph - 0.00 in   Scattered Clouds
11:59 PM 55.4 °F 51.8 °F 88% 29.78 in 10.0 mi SSE 8.1 mph - N/A   Light Drizzle